Location: Star Camp Observatory
(34.2910°N, 116.3827°W)
Time: 04:45:16
(UTC-07:00)

N. Korean satellite - Visible Passes

Search period start: 20 October 2019 00:00
Search period end: 30 October 2019 00:00
Orbit: 455 x 508 km, 97.2° (Epoch: 19 October)

Date Brightness Start Highest point End Pass type
(mag) Time Alt. Az. Time Alt. Az. Time Alt. Az.
20 Oct 10.1 05:44:41 10° ENE 05:46:55 15° E 05:49:09 10° SE visible
21 Oct 10.2 18:58:46 10° WSW 19:00:13 12° W 19:01:41 10° WNW visible
22 Oct 7.3 06:26:12 10° NNE 06:29:49 61° E 06:33:27 10° S visible
22 Oct 9.0 18:31:50 10° SSW 18:34:47 27° W 18:37:45 10° NW visible
23 Oct 9.2 06:01:21 10° NE 06:04:28 26° E 06:07:36 10° SSE visible
24 Oct 10.3 05:37:27 10° ENE 05:39:03 12° E 05:40:39 10° ESE visible
25 Oct 9.9 18:50:09 10° SW 18:52:17 16° W 18:54:27 10° NW visible
26 Oct 7.9 06:18:25 10° NNE 06:21:58 46° E 06:25:32 10° S visible
26 Oct 8.4 18:23:43 10° SSW 18:26:52 35° W 18:30:04 10° NNW visible
27 Oct 9.6 05:53:44 10° NE 05:56:36 21° E 05:59:28 10° SSE visible
29 Oct 6.7 06:35:43 10° NNE 06:39:25 86° ESE 06:43:07 10° S visible
29 Oct 9.6 18:41:44 10° SW 18:44:20 20° W 18:46:58 10° NW visible
